Location: Krakow
(50.0212°N, 19.9423°E)
Time: 07:10:42
(UTC+01:00)

NOAA 18 - Pass Details

Date: 01 May 2025
Orbit: 836 x 858 km, 98.8° (Epoch: 15 March)

Event Time Altitude Azimuth Distance (km) Brightness Sun altitude
Rises 19:05:56 0° 41° (NE) 3,443 8.1 7.2°
Enters shadow 20:06:37 -68° 159° (SSE) 12,687 11.1 -1.9°
Maximum altitude 20:46:06 14° 49° (NE) 2,241 7.3 -7.3°
